Location: Cz?stochówka
(50.8142°N, 19.0915°E)
Time: 15:05:14
(UTC+00:00)

Cosmos 2366 rocket - Pass Details

Date: 11 April 2026
Orbit: 954 x 996 km, 82.9° (Epoch: 16 May)

Event Time Altitude Azimuth Distance (km) Brightness Sun altitude
Exits shadow 19:40:02 - 188° (S) 2,886 6.2 -18.5°
Reaches altitude 10° 19:40:32 10° 188° (S) 2,698 6.0 -18.6°
Maximum altitude 19:46:43 88° 279° (W) 968 3.9 -19.3°
Drops below altitude 10° 19:52:54 10° 10° (N) 2,697 6.8 -20.0°
Sets 19:55:24 0° 10° (N) 3,646 7.5 -20.3°
